Hourly Weather Irbid

Today, 31 October, Saturday

Time Temperature Precipitation Wind Pressure Humidity
00:00 +16°C° 0 mm 0 mps 710 mmHg 83%
01:00 +16°C° 0 mm 0 mps 710 mmHg 84%
02:00 +18°C° 0 mm 1 mps 710 mmHg 84%
03:00 +16°C° 0 mm 1 mps 710 mmHg 85%
04:00 +16°C° 0 mm 1 mps 710 mmHg 85%
05:00 +16°C° 0 mm 1 mps 710 mmHg 86%
06:00 +19°C° 0 mm 1 mps 711 mmHg 79%
07:00 +19°C° 0 mm 0 mps 711 mmHg 71%
08:00 +21°C° 0 mm 0 mps 712 mmHg 64%
09:00 +25°C° 0 mm 1 mps 712 mmHg 57%
10:00 +27°C° 0 mm 1 mps 711 mmHg 49%
11:00 +29°C° 0 mm 2 mps 711 mmHg 41%
12:00 +29°C° 0 mm 2 mps 711 mmHg 38%
13:00 +30°C° 0 mm 3 mps 711 mmHg 36%
14:00 +30°C° 0 mm 4 mps 710 mmHg 36%
15:00 +28°C° 0 mm 4 mps 710 mmHg 49%
16:00 +25°C° 0 mm 3 mps 710 mmHg 62%
17:00 +22°C° 0 mm 3 mps 709 mmHg 74%
18:00 +21°C° 0 mm 3 mps 710 mmHg 79%
19:00 +19°C° 0 mm 2 mps 710 mmHg 83%
20:00 +19°C° 0 mm 1 mps 710 mmHg 88%
21:00 +19°C° 0 mm 1 mps 710 mmHg 89%
22:00 +18°C° 0 mm 1 mps 710 mmHg 91%
23:00 +18°C° 0 mm 1 mps 710 mmHg 92%

Tomorrow, 1 November, Sunday

Time Temperature Precipitation Wind Pressure Humidity
00:00 +18°C° 0 mm 1 mps 710 mmHg 93%
01:00 +16°C° 0 mm 1 mps 710 mmHg 94%
02:00 +16°C° 0 mm 1 mps 710 mmHg 95%
03:00 +16°C° 0 mm 1 mps 710 mmHg 95%
04:00 +16°C° 0 mm 1 mps 710 mmHg 95%
05:00 +16°C° 0 mm 1 mps 710 mmHg 95%
06:00 +18°C° 0 mm 1 mps 710 mmHg 91%
07:00 +19°C° 0 mm 1 mps 711 mmHg 86%
08:00 +21°C° 0 mm 1 mps 711 mmHg 82%
09:00 +21°C° 0 mm 2 mps 711 mmHg 72%
10:00 +24°C° 0 mm 3 mps 712 mmHg 63%
11:00 +26°C° 0 mm 3 mps 712 mmHg 54%
12:00 +26°C° 0 mm 4 mps 712 mmHg 50%
13:00 +27°C° 0 mm 5 mps 711 mmHg 46%
14:00 +28°C° 0 mm 6 mps 711 mmHg 43%
15:00 +26°C° 0 mm 5 mps 711 mmHg 52%
16:00 +22°C° 0 mm 4 mps 711 mmHg 60%
17:00 +20°C° 0 mm 3 mps 711 mmHg 69%
18:00 +20°C° 0.1 mm 3 mps 711 mmHg 72%
19:00 +19°C° 0.1 mm 2 mps 711 mmHg 74%
20:00 +19°C° 0.1 mm 2 mps 712 mmHg 77%
21:00 +18°C° 0 mm 2 mps 712 mmHg 79%
22:00 +19°C° 0 mm 1 mps 711 mmHg 80%
23:00 +19°C° 0 mm 1 mps 711 mmHg 82%

Day after tomorrow, 2 November, Monday

Time Temperature Precipitation Wind Pressure Humidity
00:00 +18°C° 0 mm 1 mps 711 mmHg 84%
01:00 +16°C° 0 mm 1 mps 711 mmHg 86%
02:00 +16°C° 0 mm 1 mps 711 mmHg 88%
03:00 +16°C° 0 mm 1 mps 711 mmHg 89%
04:00 +14°C° 0 mm 0 mps 711 mmHg 90%
05:00 +14°C° 0 mm 0 mps 711 mmHg 90%
06:00 +16°C° 0 mm 1 mps 712 mmHg 85%
07:00 +19°C° 0 mm 1 mps 712 mmHg 80%
08:00 +20°C° 0 mm 1 mps 713 mmHg 75%
09:00 +21°C° 0.1 mm 2 mps 713 mmHg 69%
10:00 +23°C° 0.1 mm 2 mps 713 mmHg 62%
11:00 +24°C° 0.1 mm 3 mps 713 mmHg 55%
12:00 +25°C° 0.2 mm 4 mps 713 mmHg 53%
13:00 +25°C° 0.2 mm 5 mps 713 mmHg 51%
14:00 +26°C° 0.2 mm 6 mps 712 mmHg 48%
15:00 +23°C° 0.2 mm 5 mps 712 mmHg 53%
16:00 +22°C° 0.2 mm 5 mps 712 mmHg 58%
17:00 +20°C° 0.2 mm 5 mps 712 mmHg 63%
18:00 +19°C° 0 mm 4 mps 712 mmHg 68%
19:00 +18°C° 0 mm 3 mps 712 mmHg 74%
20:00 +17°C° 0 mm 2 mps 713 mmHg 79%
21:00 +16°C° 0 mm 2 mps 713 mmHg 81%
22:00 +16°C° 0 mm 1 mps 713 mmHg 83%
23:00 +16°C° 0 mm 1 mps 713 mmHg 84%

3 November, Tuesday

Time Temperature Precipitation Wind Pressure Humidity
00:00 +15°C° 0 mm 1 mps 713 mmHg 86%
01:00 +15°C° 0 mm 1 mps 712 mmHg 87%
02:00 +14°C° 0 mm 1 mps 712 mmHg 88%
03:00 +14°C° 0 mm 1 mps 712 mmHg 89%
04:00 +13°C° 0 mm 0 mps 712 mmHg 90%
05:00 +12°C° 0 mm 0 mps 712 mmHg 91%
06:00 +14°C° 0 mm 0 mps 712 mmHg 84%
07:00 +16°C° 0 mm 0 mps 713 mmHg 78%
08:00 +17°C° 0 mm 0 mps 713 mmHg 71%
09:00 +21°C° 0 mm 1 mps 713 mmHg 65%
10:00 +21°C° 0 mm 2 mps 713 mmHg 59%
11:00 +24°C° 0 mm 2 mps 714 mmHg 52%
12:00 +24°C° 0 mm 3 mps 713 mmHg 50%
13:00 +25°C° 0 mm 3 mps 713 mmHg 47%
14:00 +25°C° 0 mm 4 mps 712 mmHg 44%
15:00 +23°C° 0 mm 4 mps 712 mmHg 50%
16:00 +22°C° 0 mm 4 mps 712 mmHg 55%
17:00 +20°C° 0 mm 4 mps 712 mmHg 61%
18:00 +19°C° 0 mm 3 mps 712 mmHg 67%
19:00 +18°C° 0 mm 2 mps 712 mmHg 73%
20:00 +16°C° 0 mm 2 mps 712 mmHg 80%
21:00 +16°C° 0 mm 1 mps 712 mmHg 81%
22:00 +15°C° 0 mm 1 mps 712 mmHg 82%
23:00 +15°C° 0 mm 1 mps 712 mmHg 84%

4 November, Wednesday

Time Temperature Precipitation Wind Pressure Humidity
00:00 +15°C° 0 mm 1 mps 712 mmHg 85%
01:00 +14°C° 0 mm 1 mps 711 mmHg 85%
02:00 +14°C° 0 mm 1 mps 711 mmHg 86%
03:00 +14°C° 0 mm 1 mps 711 mmHg 87%
04:00 +14°C° 0 mm 1 mps 711 mmHg 88%
05:00 +14°C° 0 mm 1 mps 711 mmHg 89%
06:00 +15°C° 0 mm 1 mps 711 mmHg 83%
07:00 +16°C° 0 mm 1 mps 711 mmHg 78%
08:00 +19°C° 0 mm 1 mps 712 mmHg 73%
09:00 +19°C° 0 mm 2 mps 712 mmHg 66%
10:00 +20°C° 0 mm 2 mps 712 mmHg 58%
11:00 +21°C° 0 mm 3 mps 712 mmHg 50%
12:00 +22°C° 0.1 mm 4 mps 712 mmHg 51%
13:00 +22°C° 0.1 mm 4 mps 711 mmHg 52%
14:00 +22°C° 0.1 mm 5 mps 711 mmHg 53%
15:00 +20°C° 0.1 mm 5 mps 711 mmHg 57%
16:00 +19°C° 0.1 mm 5 mps 711 mmHg 62%
17:00 +17°C° 0.1 mm 5 mps 711 mmHg 67%
18:00 +18°C° 0 mm 4 mps 711 mmHg 71%
19:00 +17°C° 0 mm 3 mps 710 mmHg 76%
20:00 +16°C° 0 mm 1 mps 710 mmHg 80%
21:00 +16°C° 0 mm 1 mps 710 mmHg 81%
22:00 +16°C° 0 mm 1 mps 710 mmHg 81%
23:00 +16°C° 0 mm 1 mps 710 mmHg 82%

5 November, Thursday

Time Temperature Precipitation Wind Pressure Humidity
00:00 +15°C° 0.1 mm 1 mps 710 mmHg 83%
01:00 +15°C° 0.1 mm 1 mps 710 mmHg 85%
02:00 +14°C° 0.1 mm 1 mps 710 mmHg 86%
03:00 +14°C° 0.3 mm 1 mps 709 mmHg 86%
04:00 +14°C° 0.3 mm 1 mps 709 mmHg 85%
05:00 +14°C° 0.3 mm 1 mps 709 mmHg 85%
06:00 +15°C° 0.5 mm 2 mps 709 mmHg 80%
07:00 +16°C° 0.5 mm 2 mps 710 mmHg 75%
08:00 +17°C° 0.5 mm 3 mps 710 mmHg 70%
09:00 +18°C° 0.2 mm 4 mps 710 mmHg 64%
10:00 +19°C° 0.2 mm 4 mps 710 mmHg 58%
11:00 +20°C° 0.2 mm 5 mps 710 mmHg 52%
12:00 +21°C° 0.4 mm 5 mps 709 mmHg 52%
13:00 +21°C° 0.4 mm 5 mps 709 mmHg 51%
14:00 +21°C° 0.4 mm 6 mps 709 mmHg 51%
15:00 +20°C° 0.5 mm 5 mps 709 mmHg 55%
16:00 +19°C° 0.5 mm 4 mps 709 mmHg 60%
17:00 +18°C° 0.5 mm 4 mps 709 mmHg 64%
18:00 +17°C° 0.4 mm 3 mps 709 mmHg 67%
19:00 +17°C° 0.4 mm 3 mps 709 mmHg 71%
20:00 +16°C° 0.4 mm 2 mps 709 mmHg 74%
21:00 +16°C° 0.2 mm 2 mps 709 mmHg 75%
22:00 +16°C° 0.2 mm 2 mps 709 mmHg 77%
23:00 +16°C° 0.2 mm 2 mps 709 mmHg 78%
Show more

We Need Your Consent

Meteoprog and our Service Providers may store and access personal data such as cookies, device identifiers or other similar technologies on your device and process such data to personalise content and ads, as well as provide social media features and to analyse the traffic.

  • Store and/or access information on your device

    Cookies, device identifiers or other information can be stored or accessed on your device for the purposes indicated above.

  • Personalised ads and content, ad and content measurement, audience insights, and products development

    Ads and content can be personalised based on a profile. More data can be added to better personalise ads and content. Ad and content performance can be measured. Insights about the audience who saw the ads and content can be derived. Such data can be used to develop or improve user’s experience, systems and software.

By clicking ‘I Agree’ you will allow the use of indicated cookies, device identifiers, web beacons or other similar technologies. Your settings can be changed in the browser on your device.

For certain purposes, legitimate interests may be relied on, rather than consent. You can read more about this in our Privacy and Cookie Policy.